Weather in Krasnobor

Russia / Komi Republic     65°17′38″N   53°17′23″E
temp.,
°C
wind,
m/s
gust,
m/s
humid.,
%
clouds,
%
prec.,
mm/h
press.,
hPa
HPBL,
m
22 october, fri
fri2200:00−1se41195100 1.5 985714
03:00−1sse3895100 2.6 984531
06:00−2s369484 0.1 984348
09:00−1sse2694100 0.3 984362
12:000se2696100 0.6 983280
15:000ese2698100 0.8 981292
18:00+1e2599100 0.0 980216
21:00+1ne1399100 0.3 979116
23 october, sat
sat2300:000n1399100 0.3 979109
03:000nw2599100 0.4 981296
06:00−1nw3798100 1.2 983375
09:00−1nw4995100 2.5 987527
12:00−1nw4884100 0.3 990736
15:00−1wnw3785100 0.3 994416
18:00−3wnw39945 0.0 997276
21:00−4w26967 0.0 1000137
24 october, sun
sun2400:00−5w25966 0.0 1002118
03:00−5w13979 0.0 100371
06:00−5wsw1396100 0.0 100477
09:00−3w2490100 0.0 1005149
12:00−1w2384100 0.0 1006299
15:00−3wnw1396100 0.0 100759
18:00−4w1498100 0.0 100790
21:00−3w2693100 0.0 1007175
25 october, mon
mon2500:00−3wsw2894100 0.0 1007253
03:00−2wnw3891100 0.1 1008548
06:00−2w3682100 0.1 1008623
09:00−2w3688100 0.1 1009422
12:00−2wnw3681100 0.1 1010671
15:00−1nw377283 0.1 1011697
18:00−4w38945 0.0 1013249
21:00−4w38949 0.0 1012283
26 october, tue
tue2600:00−5w38945 0.0 1013279
03:00−5w310905 0.0 1013298
06:00−6w310885 0.0 1013300
09:00−4w310835 0.0 1013372
12:00−3w38765 0.0 1013446
15:00−4w26865 0.0 1013177
18:00−6w249523 0.0 1013102
21:00−7w129735 0.0 101337